www.pogodaiklimat.ru

Погода и климат >> Архив погоды >> Бангладеш >> Силхет


ПОГОДА в Силхете

  • Прогноз погоды в Силхете
  • Монитор погоды в Силхете

АРХИВ ПОГОДЫ в Силхете

Время (UTC), дата Ветер
(напр.,м/с)
 
Видим.   Явления Облачность Т
(С)
Тd
(С)
f
(%)
Тe
(С)
Тes
(С)
Комфортность P
(гПа)
Po
(гПа)
Тmin
(С)
Tmax
(С)
R
(мм)
R24
(мм)
S
(см)
18 16.08 штиль 0 800 м дождь 10/8 210 м
[Cb calv As op]
+26.0 +26.0 100 +39 +39 очень
душно
1004.8 1000.9 27
21 16.08 штиль 0 1500 м ливневой дождь, в посл. час гроза 10/8 210 м
[Cb calv As op]
+26.0 +26.0 100 +39 +39 очень
душно
1004.0 1000.1 18
00 17.08 В 2 3000 м в посл. час дождь {гроза} 10/8 270 м
[Cb calv As op]
+26.0 +26.0 100 +39 +39 очень
душно
1004.0 1000.1 24
03 17.08 СВ 1 3500 м слаб. дождь 10/8 240 м
[Cb calv As op]
+26.4 +26.0 98 +39 +40 очень
душно
1005.5 1001.7 +25.0 2
06 17.08 С 2 4500 м мгла {дождь} 10/6 450 м
[Cb calv As op]
+28.0 +26.0 89 +42 +44 опасность
перегрева
1005.0 1001.2 4
09 17.08 З 3 6000 м мгла 6/3 450 м
[Cb calv Ac trans]
+30.3 +27.0 83 +48 +52 опасность
перегрева
1002.4 998.6
12 17.08 З 2 5000 м мгла 3/3 450 м
[Sc]
+30.5 +27.0 82 +48 +48 опасность
перегрева
1001.7 997.9 +32.3
15 17.08 СЗ 1 3500 м 10/4 450 м
[Cu med, cong Ci sp]
+28.0 +26.0 89 +42 +42 опасность
перегрева
1004.4 1000.6 0.4
18 17.08 ЮЗ 2 3500 м 10/6 450 м
[Cb calv As op]
+28.0 +26.0 89 +42 +42 опасность
перегрева
1005.1 1001.2 0.4
21 17.08 штиль 0 3500 м 10/6 450 м
[Cb calv As op]
+26.5 +26.0 97 +40 +40 очень
душно
1006.0 1002.1 1
00 18.08 СВ 2 4500 м слаб. дождь {гроза} 10/6 300 м
[Cb calv As op]
+26.7 +26.0 96 +40 +40 очень
душно
1006.5 1002.6 2
03 18.08 СВ 2 4500 м мгла {дождь} 10/6 300 м
[Cb calv As op]
+28.4 +25.0 82 +41 +42 опасность
перегрева
1007.7 1003.8 +26.0 0.0
06 18.08 С 3 5000 м в посл. час дождь 9/5 450 м
[Cb calv Ac As]
+30.7 +26.0 76 +46 +50 опасность
перегрева
1006.9 1003.0 1
09 18.08 В 2 4000 м в посл. час дождь 10/6 300 м
[Cb calv As op]
+27.5 +26.0 92 +41 +42 опасность
перегрева
1005.0 1001.2 8
12 18.08 ЮВ 3 5000 м мгла {дождь} 6/3 450 м
[Cb calv Ac trans]
+28.8 +27.0 90 +45 +45 опасность
перегрева
1004.2 1000.4 +32.0 8
15 18.08 штиль 0 3500 м мгла 9/5 450 м
[Cb calv Ac As]
+27.5 +27.0 97 +43 +43 опасность
перегрева
1006.2 1002.3
18 18.08 штиль 0 3500 м мгла 10/6 300 м
[Cb calv As op]
+27.0 +26.0 94 +40 +40 очень
душно
1007.9 1004.1
21 18.08 штиль 0 3500 м мгла 10/6 300 м
[Cb calv As op]
+26.5 +26.0 97 +40 +40 очень
душно
1007.0 1003.1
00 19.08 В 1 3500 м мгла 10/6 300 м
[Cb calv As op]
+26.3 +26.0 98 +39 +39 очень
душно
1006.8 1002.9
03 19.08 С 2 4500 м мгла 8/5 540 м
[Cb calv As op]
+30.5 +26.0 77 +46 +49 опасность
перегрева
1008.4 1004.6 +26.2
06 19.08 СВ 1 6000 м 5/5 540 м
[Sc diur, vesp]
+33.2 +25.0 62 +47 +59 опасность
перегрева
1007.0 1003.2
09 19.08 СВ 3 5000 м мгла 9/5 450 м
[Cb calv As trans]
+31.8 +27.0 76 +50 +52 опасность
перегрева
1004.5 1000.8
12 19.08 В 1 5000 м мгла 5/3 450 м
[Cb calv Ac trans]
+30.5 +27.0 82 +48 +48 опасность
перегрева
1003.3 999.5 +34.0
15 19.08 штиль 0 3500 м мгла 9/5 450 м
[Cb calv Ac As]
+29.5 +28.0 92 +49 +49 опасность
перегрева
1005.2 1001.4
18 19.08 штиль 0 3500 м мгла {дождь} 10/6 300 м
[Cb calv As op]
+26.8 +26.0 95 +40 +40 очень
душно
1006.4 1002.6 16
21 19.08 штиль 0 3000 м мгла {дождь} 10/6 300 м
[Cb calv As op]
+26.8 +26.8 100 +42 +42 опасность
перегрева
1005.7 1001.9 0.0
00 20.08 В 2 3000 м {морось, ливн. осадки} 10/10 300 м
[Sc diur, vesp Ac cuf]
+26.8 +26.8 100 +42 +42 опасность
перегрева
1005.4 1001.6 0.0
03 20.08 СВ 1 3500 м в посл. час дождь 10/6 300 м
[Cb calv As op]
+27.0 +26.0 94 +40 +41 очень
душно
1006.5 1002.7 +25.7 0.0
06 20.08 штиль 0 4500 м в посл. час дождь 10/6 300 м
[Cb calv As op]
+30.5 +27.0 82 +48 +50 опасность
перегрева
1005.4 1001.7 0.3
09 20.08 штиль 0 5000 м мгла 8/4 450 м
[Cb calv Ac trans]
+30.7 +26.9 80 +48 +53 опасность
перегрева
1003.1 999.3
12 20.08 С 1 7000 м 4/1 450 м
[Sc Ac trans]
+31.9 +25.0 67 +45 +46 опасность
перегрева
1001.5 997.7 +31.9
15 20.08 штиль 0 5000 м 1/1 300 м
[Cb cap Ac trans]
+28.5 +27.0 92 +45 +45 опасность
перегрева
1003.1 999.3
18 20.08 штиль 0 5000 м зарница 1/1 540 м
[]
+27.8 +27.0 95 +44 +44 опасность
перегрева
1004.1 1000.3
21 20.08 штиль 0 5000 м мгла 6/5 540 м
[Cb calv Ac trans]
+27.0 +26.0 94 +40 +40 очень
душно
1003.6 999.8
00 21.08 штиль 0 4000 м мгла 9/6 300 м
[Cb calv As op]
+27.0 +26.0 94 +40 +40 очень
душно
1003.8 1000.0
03 21.08 В 1 4500 м мгла 9/5 450 м
[Cb calv Ac As]
+30.2 +27.0 83 +47 +50 опасность
перегрева
1003.8 1000.0 +26.6
06 21.08 ЮВ 2 6000 м 8/4 450 м
[Cb calv Ac As]
+34.5 +27.0 65 +52 +59 опасность
перегрева
1002.2 998.4
09 21.08 Ю 3 6000 м 10/6 450 м
[Cb calv As op]
+33.8 +26.0 64 +50 +50 опасность
перегрева
1000.7 997.0
12 21.08 З 1 5000 м мгла 10/6 240 м
[Cb calv As op]
+32.0 +26.0 71 +48 +48 опасность
перегрева
999.9 996.2 +35.8
15 21.08 СЗ 1 4000 м мгла 6/3 450 м
[Cb calv Ac trans]
+30.5 +28.0 87 +51 +51 опасность
перегрева
1001.9 998.1
18 21.08 В 1 3500 м мгла 10/6 450 м
[Cb calv As op]
+29.0 +28.0 94 +48 +48 опасность
перегрева
1002.7 998.9
21 21.08 штиль 0 3500 м гроза без осадков 10/6 450 м
[Cb calv As op]
+28.7 +28.0 96 +47 +47 опасность
перегрева
1002.7 998.9
00 22.08 штиль 0 3500 м слаб. дождь {гроза, морось} 10/6 450 м
[Cb calv As op]
+28.3 +27.0 93 +45 +45 опасность
перегрева
1002.6 998.8 0.9
03 22.08 штиль 0 5000 м мгла {гроза, дождь} 9/5 450 м
[Cb calv As trans]
+30.7 +28.0 86 +51 +55 опасность
перегрева
1002.6 998.8 +27.4 1
06 22.08 Ю 2 5000 м мгла {гроза, дождь} 8/4 450 м
[Cb calv Ac As]
+33.5 +27.0 69 +52 +59 опасность
перегрева
1001.8 998.0 1
09 22.08 ЮВ 2 6000 м 6/3 450 м
[Cb calv Ac trans]
+35.8 +25.0 54 +49 +55 опасность
перегрева
998.6 994.9
12 22.08 В 1 5000 м мгла 10/6 420 м
[Cb calv As op]
+33.0 +28.0 75 +54 +54 опасность
перегрева
999.0 995.3 +36.2
15 22.08 штиль 0 3000 м гроза без осадков 10/6 300 м
[Cb calv As op]
+31.5 +28.0 82 +52 +52 опасность
перегрева
1002.2 998.4
18 22.08 штиль 0 4000 м зарница {дождь} 10/6 240 м
[Cb calv As op]
+27.0 +25.0 89 +39 +39 очень
душно
1003.9 1000.1 2
21 22.08 штиль 0 2500 м сильн. дождь 10/8 240 м
[Cb calv As op]
+26.0 +25.0 94 +37 +37 очень
душно
1003.6 999.8 15
00 23.08 штиль 0 2500 м сильн. дождь 10/8 240 м
[Cb calv As op]
+26.0 +25.0 94 +37 +37 очень
душно
1003.6 999.8 27
03 23.08 В 1 4500 м слаб. дождь 10/8 240 м
[Cb calv As op]
+26.8 +27.0 100 +42 +42 опасность
перегрева
1004.6 1000.8 +25.6 3
06 23.08 В 1 4500 м мгла {дождь} 10/6 300 м
[Cb calv As op]
+28.7 +26.0 85 +43 +45 опасность
перегрева
1001.8 1001.0 3
09 23.08 СВ 2 8000 м 10/6 240 м
[Cb calv As op]
+31.5 +26.0 73 +47 +48 опасность
перегрева
1002.3 998.5
12 23.08 ЮВ 1 8000 м 10/6 300 м
[Cb calv As op]
+29.5 +26.0 81 +44 +44 опасность
перегрева
1002.1 998.3 +32.0
15 23.08 штиль 0 5000 м зарница 10/6 300 м
[Cb calv As op]
+28.4 +26.0 87 +43 +43 опасность
перегрева
1004.6 1000.8

 

Местоположение метеостанции Силхет (Бангладеш): широта 24.90 долгота 91.88 высота над уровнем моря 35 м.

В архиве по умолчанию представлена погода в Силхете за последнюю неделю. Архивные данные за месяц целиком и за предыдущие месяцы, начиная с января 2011 года, Вы можете получить, выбрав интересующий диапазон дат из раскрывающегося списка и нажав кнопку "Ввод!".


*Определитесь, кто Вы:
робот инопланетянин человек

Внимание! Время в таблицах - всемирное. Для получения местного времени необходимо прибавить поправку, которая равна 6.5 ч.

Смотрите также архив погоды в соседних городах и на ближайших метеорологических станциях:

Погода в Черапунджи (Мегхалая, Индия) (42 км)
Погода в Кайлашахаре (Трипура, Индия) (66 км)
Погода в Стримангале (Бангладеш) (68 км)
Погода в Шиллонге (Мегхалая, Индия) (75 км)
Погода в Шиллонг аэропорту (Мегхалая, Индия) (89 км)
Погода в Силчаре (Ассам, Индия) (94 км)
Погода в Никли (Бангладеш) (115 км)
Погода в Нетрокона-Садаре (Бангладеш) (116 км)
Погода в Хафлонге (Ассам, Индия) (119 км)
Погода в Агартале (Трипура, Индия) (130 км)

Пояснения к столбцам:

Ветер - указаны скорость ветра в м/с - средняя за 10 мин, порывы в срок и между сроками (в фигурных скобках) и направление, откуда дует ветер: С - северный, СВ - северо-восточный, В - восточный, ЮВ - юго-восточный, Ю - южный, ЮЗ - юго-западный, З - западный, СЗ - северо-западный.
Видимость - горизонтальная дальность видимости в метрах или километрах. При видимости от 1 до 10 км при отсутствии осадков обычно наблюдается дымка, при ухудшении видимости до 1 км и менее - туман. В сухую погоду видимость может ухудшаться дымом, пылью или мглою.
Явления - указаны атмосферные явления, наблюдавшиеся в срок или в последний час перед сроком; фигурными скобками обозначены явления, наблюдавшиеся между сроками (за 1-3 часа до срока); квадратными скобками обозначены град или гололедные отложения с указанием их диаметра в мм.
Облачность - указаны через наклонную черту общая и нижняя облачность в баллах и высота нижней границы облаков в метрах; квадратными скобками обозначены формы облаков: Ci - перистые, Cs - перисто-слоистые, Cc - перисто-кучевые, Ac - высококучевые, As - высокослоистые, Sc - слоисто-кучевые, Ns - слоисто-дождевые, Cu - кучевые, Cb - кучево-дождевые. Подробнее классификацию облаков см. в Атласе облаков (PDF).
T - Температура воздуха - температура, измеренная на высоте 2 м над землей.
Td - Температура точки росы - температура, при понижении до которой содержащийся в воздухе водяной пар достигнет насыщения.
f - Относительная влажность воздуха - влажноcть воздуха, измеренная на высоте 2 м над землей.
Te - Эффективная температура - температура, которую ощущает одетый по сезону человек в тени. Характеристика душности погоды. При расчете учитывается влияние влажности воздуха и скорости ветра на теплоощущения человека.
Tes - Эффективная температура на солнце - температура, которую ощущает человек, с поправкой на солнечный нагрев. Характеристика знойности погоды. Зависит от высоты солнца над горизонтом, облачности и скорости ветра. Ночью, в пасмурную погоду, а также при ветре 12 м/с и более поправка равна нулю.
P - Атмосферное давление - приведенное к уровню моря атмосферное давление.
Po - Атмосферное давление - измеренное на уровне метеостанции атмосферное давление.
Tmin - Минимальная температура - минимум температуры воздуха на высоте 2 м над землей.
Tmax - Максимальная температура - максимум температуры воздуха на высоте 2 м над землей.
R - Количество осадков - Количество выпавших осадков за период времени, мм. При наведении курсора мыши на число - период времени, за который выпало указанное количество осадков.
R24 - Количество осадков - Количество выпавших осадков за 24 часа, мм.
S - Снежный покров - Высота снежного покрова, см. При наведении курсора мыши на число - состояние снежного покрова и степень покрытия местности в баллах.